Weather History for Inverness, United Kingdom

Change the Weather History Date:

Tuesday, July 16, 2013

  Actual Average Record
Temperature  
Mean Temperature 66 °F -  
Max Temperature 73 °F 63 °F 84 °F (2003)
Min Temperature 57 °F 50 °F 42 °F (2001)
Cooling Degree Days 1    
Growing Degree Days 16 (Base 50)    
Moisture  
Dew Point 56 °F    
Average Humidity 74    
Maximum Humidity 94    
Minimum Humidity 57    
Precipitation  
Precipitation 0.00 in - - ()
Sea Level Pressure  
Sea Level Pressure 30.12 in    
Wind  
Wind Speed 11 mph ()    
Max Wind Speed 17 mph    
Max Gust Speed -    
Visibility 6.2 miles    
Events      
Averages and records for this station are not official NWS values.
T = Trace of Precipitation, MM = Missing Value Source: Averaged Metar Reports

Daily Weather History Graph

Daily Weather History Graph

Search for Another Location

Airport:

Trip Planner

Search our weather history database for the weather conditions in past years. The results will help you decide how hot, cold, wet, or windy it might be!

Date:

Astronomy

Jul. 16, 2013 Rise Set
Actual Time 4:42 AM BST 10:01 PM BST
Civil Twilight 3:40 AM BST 11:02 PM BST
Nautical Twilight 1:54 AM BST 12:49 AM BST
Astronomical Twilight Sun does not rise Sun does not rise
Moon 2:50 PM BST (7/16) No Moon Set
Length of Visible Light 19h 21m
Length of Day
17h 19m
First Quarter, 54% of the Moon is Illuminated
Jul 16
First Quarter
Jul 22
Full
Jul 29
Last Quarter
Aug 6
New
Aug 14
First Quarter

Hourly Weather History & Observations

Time (BST) Temp. Dew Point Humidity Pressure Visibility Wind Dir Wind Speed Gust Speed Precip Events Conditions
12:20 AM 59.0 °F 55.4 °F 88% 30.09 in 6.2 mi WSW 10.4 mph - N/A   Mostly Cloudy
12:50 AM 60.8 °F 55.4 °F 82% 30.09 in 6.2 mi SW 11.5 mph - N/A   Mostly Cloudy
1:20 AM 60.8 °F 55.4 °F 82% 30.12 in 6.2 mi WSW 15.0 mph - N/A   Mostly Cloudy
1:50 AM 60.8 °F 57.2 °F 88% 30.09 in 6.2 mi SW 16.1 mph - N/A   Partly Cloudy
2:20 AM 60.8 °F 55.4 °F 82% 30.09 in 6.2 mi SW 10.4 mph - N/A   Scattered Clouds
2:50 AM 60.8 °F 55.4 °F 82% 30.09 in 6.2 mi SW 12.7 mph - N/A   Partly Cloudy
3:20 AM 60.8 °F 55.4 °F 82% 30.09 in 6.2 mi WSW 12.7 mph - N/A   Partly Cloudy
3:50 AM 60.8 °F 57.2 °F 88% 30.09 in 6.2 mi SW 12.7 mph - N/A   Scattered Clouds
4:20 AM 60.8 °F 57.2 °F 88% 30.09 in 6.2 mi SW 10.4 mph - N/A   Scattered Clouds
4:50 AM 60.8 °F 55.4 °F 82% 30.09 in 6.2 mi SW 10.4 mph - N/A   Scattered Clouds
5:20 AM 59.0 °F 55.4 °F 88% 30.09 in 6.2 mi WSW 9.2 mph - N/A   Partly Cloudy
5:50 AM 59.0 °F 57.2 °F 94% 30.09 in 6.2 mi WSW 8.1 mph - N/A   Partly Cloudy
6:20 AM 60.8 °F 57.2 °F 88% 30.12 in 6.2 mi SW 5.8 mph - N/A   Partly Cloudy
6:50 AM 62.6 °F 57.2 °F 82% 30.12 in 6.2 mi WSW 6.9 mph - N/A   Partly Cloudy
7:20 AM 64.4 °F 57.2 °F 77% 30.09 in 6.2 mi SW 12.7 mph - N/A   Partly Cloudy
7:50 AM 66.2 °F 59.0 °F 78% 30.12 in 6.2 mi SW 11.5 mph - N/A   Partly Cloudy
8:20 AM 66.2 °F 59.0 °F 78% 30.12 in 6.2 mi SW 11.5 mph - N/A   Partly Cloudy
8:50 AM 66.2 °F 59.0 °F 78% 30.12 in 6.2 mi SW 11.5 mph - N/A   Partly Cloudy
9:20 AM 69.8 °F 59.0 °F 68% 30.12 in 6.2 mi SW 13.8 mph - N/A   Partly Cloudy
9:50 AM 68.0 °F 59.0 °F 73% 30.12 in 6.2 mi SW 13.8 mph - N/A   Scattered Clouds
10:20 AM 68.0 °F 59.0 °F 73% 30.12 in 6.2 mi SW 12.7 mph - N/A   Mostly Cloudy
10:50 AM 68.0 °F 59.0 °F 73% 30.12 in 6.2 mi SW 10.4 mph - N/A   Scattered Clouds
11:20 AM 68.0 °F 59.0 °F 73% 30.12 in 6.2 mi SW 10.4 mph - N/A   Scattered Clouds
11:50 AM 69.8 °F 59.0 °F 68% 30.12 in 6.2 mi SW 11.5 mph - N/A   Scattered Clouds
12:20 PM 68.0 °F 59.0 °F 73% 30.12 in 6.2 mi SW 10.4 mph - N/A   Mostly Cloudy
12:50 PM 68.0 °F 57.2 °F 68% 30.12 in 6.2 mi SW 10.4 mph - N/A   Mostly Cloudy
1:20 PM 68.0 °F 57.2 °F 68% 30.12 in 6.2 mi SW 11.5 mph - N/A   Mostly Cloudy
1:50 PM 68.0 °F 57.2 °F 68% 30.12 in 6.2 mi SW 10.4 mph - N/A   Mostly Cloudy
2:20 PM 69.8 °F 57.2 °F 64% 30.12 in 6.2 mi WSW 9.2 mph - N/A   Scattered Clouds
2:50 PM 68.0 °F 57.2 °F 68% 30.12 in 6.2 mi WSW 11.5 mph - N/A   Scattered Clouds
3:20 PM 73.4 °F 57.2 °F 57% 30.12 in 6.2 mi SW 13.8 mph - N/A   Scattered Clouds
3:50 PM 69.8 °F 57.2 °F 64% 30.12 in 6.2 mi SW 13.8 mph - N/A   Scattered Clouds
4:20 PM 69.8 °F 55.4 °F 60% 30.12 in 6.2 mi SW 13.8 mph - N/A   Scattered Clouds
4:50 PM 69.8 °F 55.4 °F 60% 30.12 in 6.2 mi SW 17.3 mph - N/A   Partly Cloudy
5:20 PM 69.8 °F 55.4 °F 60% 30.12 in 6.2 mi SW 16.1 mph - N/A   Scattered Clouds
5:50 PM 69.8 °F 55.4 °F 60% 30.12 in 6.2 mi SW 17.3 mph - N/A   Scattered Clouds
6:20 PM 69.8 °F 55.4 °F 60% 30.12 in 6.2 mi SW 16.1 mph - N/A   Scattered Clouds
6:50 PM 69.8 °F 55.4 °F 60% 30.12 in 6.2 mi WSW 11.5 mph - N/A   Scattered Clouds
7:20 PM 68.0 °F 55.4 °F 64% 30.12 in 6.2 mi WSW 12.7 mph - N/A   Scattered Clouds
7:50 PM 66.2 °F 55.4 °F 68% 30.15 in 6.2 mi SW 11.5 mph - N/A   Scattered Clouds
8:20 PM 66.2 °F 55.4 °F 68% 30.15 in 6.2 mi WSW 11.5 mph - N/A   Scattered Clouds
8:50 PM 66.2 °F 55.4 °F 68% 30.15 in 6.2 mi SW 9.2 mph - N/A   Partly Cloudy
9:20 PM 64.4 °F 53.6 °F 68% 30.15 in 6.2 mi SW 6.9 mph - N/A   Partly Cloudy
9:50 PM 64.4 °F 53.6 °F 68% 30.15 in 6.2 mi SW 8.1 mph - N/A   Scattered Clouds
10:20 PM 64.4 °F 53.6 °F 68% 30.15 in 6.2 mi SW 12.7 mph - N/A   Mostly Cloudy
10:50 PM 64.4 °F 53.6 °F 68% 30.15 in 6.2 mi SW 9.2 mph - N/A   Partly Cloudy
11:20 PM 60.8 °F 53.6 °F 77% 30.15 in 6.2 mi SW 9.2 mph - N/A   Unknown
11:50 PM 57.2 °F 53.6 °F 88% 30.15 in 6.2 mi WSW 5.8 mph - N/A   Unknown